Location: Unspecified
(0.0000°N, 0.0000°E)
Time: 21:06:37
(UTC+00:00)

N. Korean satellite - Pass Details

Date: 19 March 2023
Orbit: 390 x 416 km, 97.3° (Epoch: 29 March)

Event Time Altitude Azimuth Distance (km) Brightness Sun altitude
Rises 04:47:23 0° 21° (NNE) 2,302 10.3 -20.1°
Reaches altitude 10° 04:49:25 10° 29° (NNE) 1,441 9.3 -19.6°
Maximum altitude 04:52:20 41° 101° (E) 586 7.5 -18.9°
Drops below altitude 10° 04:55:15 10° 173° (S) 1,434 9.0 -18.2°
Sets 04:57:16 0° 180° (S) 2,288 10.0 -17.7°
